[[{"header":{"parameterUnit":"m.s-1","parameterCategory":1,"la1":30.2991,"la2":30.254,"lo1":-89.0895,"lo2":-89.0444,"dy":0.0017,"dx":0.0017,"nx":28,"ny":28,"refTime":"2024-12-26T09:00:00:Z","depth":0,"parameterNumber":2,"parameterNumberName":"U-component_of_WINDS"},"data":[0,0,0,0,0,0,0,0,0,0,0,0,0,0,0,0,0,0,0,0,0,0,0,0,0,0,0,0,0,0,0,0,0,0,0,0,0,0,0,0,0,0,0,0,0,0,0,0,0,0,0,0,0,0,0,0,0,0,-5.907,-5.907,0,-5.9075,-5.9075,-5.9075,-5.8925,-5.892,-5.8916,-5.8913,-5.8921,-5.8925,-5.8929,0,0,0,0,0,0,0,0,0,0,0,0,0,-5.8933,-5.8936,-5.907,-5.907,-5.907,-5.9075,-5.9075,-5.9075,-5.8925,-5.892,-5.8915,-5.8911,-5.892,-5.8924,-5.8929,0,0,0,0,0,0,0,0,0,0,0,0,0,-5.8971,-5.8937,-5.907,-5.8996,-5.8989,-5.9075,-5.9075,-5.9075,-5.8926,-5.892,-5.8914,-5.8908,-5.8918,-5.8924,-5.893,-5.9088,0,0,-5.8948,-5.8951,0,0,0,0,0,0,0,0,-5.8969,-5.8976,-5.9006,-5.9001,-5.8994,-5.8993,-5.903,-5.908,-5.8928,-5.895,-5.8913,-5.8906,-5.895,-5.8953,-5.8967,-5.9089,-5.9089,-5.8949,-5.8952,-5.8955,-5.8957,0,0,0,0,0,0,0,-5.8966,-5.8975,-5.9072,-5.9007,-5.8999,-5.8963,-5.8962,-5.9039,-5.8984,-5.8948,-5.8937,-5.8939,-5.8945,-5.8962,-5.8967,-5.9089,-5.8949,-5.8954,-5.8958,-5.896,-5.9342,-5.9348,0,0,0,0,0,0,-5.8973,-5.8974,-5.9072,-5.9072,-5.8966,-5.8971,-5.8969,-5.8999,-5.8983,-5.8974,-5.8945,-5.8932,-5.8955,-5.896,-5.8966,-5.9151,-5.8955,-5.8961,-5.8964,-5.9335,-5.9343,-5.935,0,0,0,0,0,0,-5.8971,-5.8984,-5.9071,-5.902,-5.9028,-5.8979,-5.9015,-5.9003,-5.9019,-5.898,-5.897,-5.8971,-5.895,-5.8958,-5.9059,-5.9149,-5.8963,-5.8969,-5.9328,-5.9338,-5.9347,-5.9522,0,0,0,0,0,0,-5.8968,-5.8984,-5.9042,-5.9022,-5.9032,-5.9164,-5.902,-5.9007,-5.9029,-5.9013,-5.9003,-5.8995,-5.8946,-5.9051,-5.9065,-5.9154,-5.8973,-5.9319,-5.9332,-5.9344,-5.9508,-5.9537,-5.9561,0,0,0,0,0,-5.8963,-5.9092,-5.9046,-5.9059,-5.9104,-5.9169,-5.9175,-5.9114,-5.9037,-5.9096,-5.9072,-5.8996,-5.9137,-5.9063,-5.9077,-5.917,-5.9313,-5.9329,-5.9343,-5.9496,-5.9531,-5.9561,0,0,0,0,0,0,-5.9124,-5.9088,-5.9037,-5.9162,-5.917,-5.9144,-5.9216,-5.9153,-5.9184,-5.9168,-5.9092,-5.9092,-5.9205,-5.9197,-5.9115,-5.9323,-5.9212,-5.923,-5.9324,-5.9356,-5.9383,-5.9382,-5.8978,0,0,0,0,0,-5.9174,-5.9229,-5.9195,-5.9309,-5.9315,-5.9266,-5.9292,-5.9245,-5.925,-5.9253,-5.9236,-5.9245,-5.9291,-5.9323,-5.9364,-5.9506,-5.9503,-5.9577,-5.9604,-5.9626,-5.9643,-5.9719,-5.9752,-5.9399,-5.9399,-5.9398,0,0,-5.9278,-5.9265,-5.9304,-5.9341,-5.9341,-5.9401,-5.9269,-5.9338,-5.9382,-5.9264,-5.9358,-5.9346,-5.9351,-5.9475,-5.9528,-5.9471,-5.974,-5.9645,-5.9663,-5.9667,-5.9738,-5.9771,-5.9801,-5.9409,-5.9407,-5.9405,0,0,-5.9498,-5.9493,-5.9588,-5.9592,-5.9594,-5.956,-5.9584,-5.9567,-5.9555,-5.9648,-5.9561,-5.9613,-5.9694,-5.9702,-5.9716,-5.9942,-5.9873,-5.9957,-6.0096,-6.0172,-6.0199,-6.0224,-6.0305,-6.0335,-5.9974,-5.9975,-5.9975,0,-5.9627,-5.9712,-5.9645,-5.972,-5.974,-5.9635,-5.9731,-5.9738,-5.9755,-5.9771,-5.9707,-5.9808,-5.9804,-5.9928,-5.9983,-5.9998,-6.0023,-5.9958,-6.0201,-6.0224,-6.0246,-6.0323,-6.0353,-5.9985,-5.9984,-5.9983,-5.9982,0,-5.9872,-5.9933,-6.0009,-6.0027,-6.0055,-6.0141,-6.0088,-6.0125,-6.0076,-6.005,-6.0148,-6.0139,-6.0177,-6.0203,-6.0156,-6.0322,-6.0286,-6.0213,-6.01,-6.0291,-6.0362,-6.0391,-5.9999,-5.9996,-5.9993,-5.999,0,0,-6.0191,-6.0172,-6.0202,-6.0209,-6.0205,-6.0251,-6.0333,-6.0369,-6.0403,-6.0418,-6.0485,-6.0558,-6.049,-6.0507,-6.046,-6.0527,-6.0707,-6.0445,-6.0444,-6.0494,-6.089,-6.0945,-6.098,-6.0662,-6.0667,-6.0671,-6.0889,0,-6.0405,-6.0542,-6.0485,-6.0628,-6.0685,-6.0587,-6.0659,-6.0665,-6.0643,-6.0689,-6.0665,-6.0717,-6.0624,-6.0633,-6.0695,-6.0672,-6.0785,-6.0655,-6.0725,-6.0728,-6.0726,-6.1017,-6.1075,-6.1281,-6.0917,-6.0921,-6.0925,0,-6.0672,-6.0699,-6.0848,-6.0835,-6.0856,-6.0921,-6.0951,-6.0995,-6.1001,-6.098,-6.1001,-6.094,-6.102,-6.0909,-6.1019,-6.0933,-6.0958,-6.0951,-6.0958,-6.0962,-6.0838,-6.1029,-6.1345,-6.1377,-6.0967,-6.0964,-6.0961,0,-6.0892,-6.0964,-6.1063,-6.1072,-6.106,-6.1108,-6.1105,-6.1104,-6.1131,-6.1157,-6.1173,-6.121,-6.1229,-6.1259,-6.1211,-6.1133,-6.1329,-6.1213,-6.1315,-6.1317,-6.1361,-6.1359,-6.1686,-6.1377,-6.1377,-6.1376,-6.1376,0,-6.1136,-6.1232,-6.1161,-6.1222,-6.1326,-6.1261,-6.1366,-6.1353,-6.1354,-6.1411,-6.1329,-6.1385,-6.1317,-6.1367,-6.133,-6.1428,-6.1438,-6.1424,-6.1413,-6.1432,-6.1434,-6.1447,-6.1432,-6.1384,-6.1383,-6.1381,-6.138,0,-6.1399,-6.1355,-6.1456,-6.1437,-6.1434,-6.1512,-6.1495,-6.1551,-6.1524,-6.1598,-6.1612,-6.157,-6.1625,-6.1579,-6.1633,-6.1608,-6.1738,-6.1707,-6.1736,-6.1728,-6.1833,-6.1824,-6.218,-6.2224,-6.1888,-6.1891,-6.1894,0,-6.1557,-6.1628,-6.1616,-6.1649,-6.1651,-6.1704,-6.173,-6.167,-6.1701,-6.1713,-6.1769,-6.1816,-6.1851,-6.1943,-6.1919,-6.1959,-6.1928,-6.2051,-6.1934,-6.1951,-6.1931,-6.1927,-6.1935,-6.2074,-6.2078,-6.2082,-6.2084,0,-6.1844,-6.182,-6.186,-6.1895,-6.1928,-6.1952,-6.197,-6.2002,-6.1939,-6.1979,-6.2033,-6.2061,-6.2115,-6.2164,-6.2197,-6.2195,-6.2131,-6.2121,-6.2147,-6.2167,-6.2181,-6.2175,-6.1801,-6.2113,-6.211,-6.2108,-6.2107,-6.2105,-6.2059,-6.2118,-6.212,-6.2168,-6.2175,-6.2194,-6.2246,-6.2226,-6.2271,-6.231,-6.2272,-6.2338,-6.2344,-6.2381,-6.2388,-6.244,-6.2389,-6.2427,-6.2436,-6.2446,-6.2462,-6.2173,-6.2446,-6.2445,-6.2444,-6.2443,-6.2442,0,-6.2342,-6.2339,-6.2384,-6.2411,-6.2451,-6.2386,-6.2402,-6.244,-6.2499,-6.2509,-6.2546,-6.261,-6.2657,-6.2637,-6.2679,-6.2725,-6.2696,-6.2738,-6.2734,-6.2735,-6.2504,-6.2478,-6.276,-6.276,-6.276,-6.276,-6.276,-6.276,-6.2494,-6.259,-6.2567,-6.2667,-6.2662,-6.2727,-6.2742,-6.276,-6.2768,-6.2843,-6.2882,-6.2868,-6.2867,-6.2908,-6.295,-6.2942,-6.2962,-6.3015,-6.2997,-6.2782,-6.2751,-6.2721,-6.2696,-6.3019,-6.302,-6.3223,-6.3225,-6.3226]},{"header":{"parameterUnit":"m.s-1","parameterCategory":1,"la1":30.2991,"la2":30.254,"lo1":-89.0895,"lo2":-89.0444,"dy":0.0017,"dx":0.0017,"nx":28,"ny":28,"refTime":"2024-12-26T09:00:00:Z","depth":0,"parameterNumber":3,"parameterNumberName":"V-component_of_WINDS"},"data":[0,0,0,0,0,0,0,0,0,0,0,0,0,0,0,0,0,0,0,0,0,0,0,0,0,0,0,0,0,0,0,0,0,0,0,0,0,0,0,0,0,0,0,0,0,0,0,0,0,0,0,0,0,0,0,0,0,0,-1.8568,-1.8568,0,-1.8541,-1.8541,-1.854,-1.8481,-1.848,-1.8479,-1.8478,-1.845,-1.8451,-1.8451,0,0,0,0,0,0,0,0,0,0,0,0,0,-1.8569,-1.8569,-1.8568,-1.8568,-1.8568,-1.8541,-1.8541,-1.854,-1.8482,-1.848,-1.8479,-1.8477,-1.845,-1.8451,-1.8451,0,0,0,0,0,0,0,0,0,0,0,0,0,-1.8558,-1.8569,-1.8568,-1.8535,-1.8532,-1.8541,-1.8541,-1.854,-1.8482,-1.848,-1.8478,-1.8477,-1.845,-1.8451,-1.8451,-1.8491,0,0,-1.8453,-1.8453,0,0,0,0,0,0,0,0,-1.8558,-1.8558,-1.854,-1.8537,-1.8534,-1.8513,-1.8531,-1.8524,-1.8482,-1.8501,-1.8478,-1.8476,-1.8473,-1.8471,-1.847,-1.849,-1.8488,-1.8453,-1.8453,-1.8454,-1.8454,0,0,0,0,0,0,0,-1.8559,-1.8559,-1.8558,-1.854,-1.8536,-1.8521,-1.8518,-1.8529,-1.8497,-1.8499,-1.8495,-1.8492,-1.847,-1.847,-1.8469,-1.8488,-1.8453,-1.8454,-1.8454,-1.8454,-1.8537,-1.8538,0,0,0,0,0,0,-1.8565,-1.856,-1.8558,-1.8557,-1.8542,-1.8523,-1.8519,-1.8521,-1.8497,-1.8491,-1.8494,-1.849,-1.847,-1.8468,-1.8468,-1.8511,-1.8454,-1.8454,-1.8455,-1.8535,-1.8537,-1.8539,0,0,0,0,0,0,-1.8565,-1.8565,-1.856,-1.8557,-1.8555,-1.8525,-1.8528,-1.8522,-1.8521,-1.8493,-1.8487,-1.8499,-1.8468,-1.8467,-1.8485,-1.851,-1.8454,-1.8455,-1.8533,-1.8536,-1.8538,-1.86,0,0,0,0,0,0,-1.8565,-1.8566,-1.8581,-1.8558,-1.8555,-1.8578,-1.853,-1.8523,-1.8522,-1.8516,-1.8496,-1.8491,-1.8467,-1.8485,-1.8486,-1.851,-1.8455,-1.853,-1.8534,-1.8537,-1.8596,-1.8605,-1.8612,0,0,0,0,0,-1.8566,-1.86,-1.8582,-1.8582,-1.8574,-1.8579,-1.8578,-1.8549,-1.8524,-1.8539,-1.8521,-1.8492,-1.8507,-1.8487,-1.8488,-1.8512,-1.8529,-1.8533,-1.8537,-1.8592,-1.8603,-1.8612,0,0,0,0,0,0,-1.8628,-1.8596,-1.8576,-1.8604,-1.8595,-1.8569,-1.8587,-1.8562,-1.856,-1.8554,-1.8518,-1.8514,-1.8537,-1.8526,-1.8505,-1.8548,-1.8513,-1.8518,-1.8555,-1.8565,-1.8573,-1.8575,-1.8456,0,0,0,0,0,-1.8644,-1.8652,-1.8624,-1.8651,-1.8648,-1.8618,-1.862,-1.8598,-1.8587,-1.8583,-1.8566,-1.8556,-1.8558,-1.8561,-1.8562,-1.8594,-1.8588,-1.8611,-1.8619,-1.8626,-1.863,-1.8645,-1.8654,-1.8553,-1.8553,-1.8553,0,0,-1.8679,-1.8663,-1.867,-1.8663,-1.8653,-1.8661,-1.8615,-1.8626,-1.8631,-1.8584,-1.86,-1.8587,-1.8574,-1.8599,-1.8609,-1.8591,-1.8657,-1.8631,-1.8637,-1.8637,-1.865,-1.866,-1.8668,-1.8556,-1.8555,-1.8555,0,0,-1.8747,-1.8736,-1.8757,-1.8748,-1.8733,-1.8713,-1.8718,-1.8696,-1.8686,-1.8701,-1.8665,-1.8671,-1.8676,-1.8667,-1.8664,-1.8726,-1.8699,-1.8728,-1.8771,-1.8785,-1.8793,-1.88,-1.8822,-1.883,-1.8732,-1.8732,-1.8732,0,-1.8793,-1.8803,-1.8771,-1.8783,-1.8781,-1.8738,-1.8758,-1.8751,-1.8737,-1.8736,-1.8716,-1.872,-1.8708,-1.873,-1.8745,-1.8744,-1.8748,-1.873,-1.8795,-1.8801,-1.8807,-1.8827,-1.8836,-1.8736,-1.8735,-1.8735,-1.8734,0,-1.8859,-1.8867,-1.8886,-1.8873,-1.8872,-1.8889,-1.8858,-1.8862,-1.884,-1.8822,-1.8837,-1.8821,-1.8817,-1.882,-1.8799,-1.8838,-1.8827,-1.8801,-1.8765,-1.8821,-1.8839,-1.8847,-1.8741,-1.8739,-1.8738,-1.8737,0,0,-1.8967,-1.8934,-1.8942,-1.8935,-1.8915,-1.892,-1.8934,-1.8929,-1.8932,-1.8924,-1.8934,-1.8939,-1.8914,-1.891,-1.8887,-1.89,-1.8949,-1.8872,-1.8872,-1.8887,-1.899,-1.9009,-1.9019,-1.8931,-1.8932,-1.8933,-1.8991,0,-1.9029,-1.9051,-1.9022,-1.905,-1.9056,-1.9014,-1.9026,-1.9015,-1.8998,-1.9,-1.8981,-1.8985,-1.8953,-1.8949,-1.896,-1.8941,-1.897,-1.8937,-1.894,-1.894,-1.8944,-1.9028,-1.9049,-1.9104,-1.8998,-1.8999,-1.9,0,-1.9106,-1.9101,-1.9129,-1.9106,-1.9107,-1.9118,-1.9111,-1.9114,-1.9099,-1.9086,-1.9081,-1.9053,-1.9064,-1.9029,-1.9043,-1.9022,-1.9021,-1.9012,-1.9013,-1.9012,-1.8973,-1.9029,-1.9121,-1.9129,-1.9011,-1.901,-1.9009,0,-1.918,-1.918,-1.9197,-1.9192,-1.9165,-1.9174,-1.9163,-1.9147,-1.9146,-1.9139,-1.9138,-1.9133,-1.913,-1.9127,-1.9098,-1.9075,-1.9115,-1.9078,-1.9104,-1.9105,-1.9115,-1.9114,-1.9207,-1.9115,-1.9115,-1.9115,-1.9115,0,-1.9253,-1.9273,-1.923,-1.924,-1.9259,-1.9225,-1.9245,-1.923,-1.9216,-1.9222,-1.9185,-1.9192,-1.9154,-1.9156,-1.9134,-1.9148,-1.9148,-1.9137,-1.9131,-1.914,-1.9141,-1.9139,-1.9134,-1.9117,-1.9117,-1.9116,-1.9116,0,-1.934,-1.9312,-1.9327,-1.93,-1.9294,-1.9309,-1.9286,-1.9294,-1.9274,-1.9282,-1.9282,-1.9251,-1.9251,-1.9222,-1.9217,-1.9202,-1.9226,-1.9213,-1.9231,-1.9226,-1.9253,-1.9251,-1.9348,-1.9358,-1.926,-1.9261,-1.9262,0,-1.9389,-1.9402,-1.9376,-1.9377,-1.9368,-1.937,-1.9368,-1.9334,-1.9333,-1.9317,-1.9327,-1.9324,-1.932,-1.9323,-1.93,-1.9295,-1.9281,-1.9315,-1.928,-1.9289,-1.9281,-1.928,-1.9281,-1.9323,-1.9324,-1.9325,-1.9326,0,-1.9477,-1.9462,-1.9461,-1.9454,-1.9452,-1.9445,-1.9436,-1.9439,-1.9402,-1.9403,-1.9402,-1.9399,-1.9393,-1.9391,-1.9381,-1.937,-1.9342,-1.9337,-1.9343,-1.9352,-1.9362,-1.9356,-1.925,-1.9335,-1.9334,-1.9334,-1.9333,-1.9333,-1.9545,-1.9555,-1.9537,-1.9536,-1.9525,-1.9517,-1.9523,-1.9503,-1.9502,-1.9494,-1.9474,-1.9477,-1.946,-1.9445,-1.9435,-1.9437,-1.9419,-1.9428,-1.943,-1.9432,-1.9437,-1.9362,-1.9435,-1.9435,-1.9434,-1.9434,-1.9434,0,-1.9631,-1.9617,-1.9617,-1.9604,-1.9603,-1.9576,-1.9564,-1.9565,-1.9568,-1.9555,-1.9551,-1.955,-1.9547,-1.9523,-1.9517,-1.9522,-1.9509,-1.9522,-1.9521,-1.9518,-1.9453,-1.9449,-1.9532,-1.9532,-1.9532,-1.9532,-1.9532,-1.9532,-1.9676,-1.969,-1.9672,-1.968,-1.9666,-1.9668,-1.9663,-1.9655,-1.9644,-1.9644,-1.9641,-1.9625,-1.9608,-1.96,-1.9595,-1.9588,-1.9587,-1.9604,-1.9593,-1.9533,-1.9523,-1.9514,-1.9509,-1.9604,-1.9605,-1.9657,-1.9658,-1.9658]}]]